Find Starlink 4435

NORAD ID: 53502 Int'l Des: 2022-099 Owner: SPXS Country: US Constellation: starlink operational
LEOCIRCULARRETROGRADESSO

リアルタイム位置

3D地球を読み込み中...

Starlink 4435について

説明を読み込み中...

次回通過

Passes for default location (London). Set your location on the main map for personalized predictions.

高度履歴

Loading altitude history...

軌道要素

1 53502U 22099AP 26107.16248177 .00036664 00000-0 17776-2 0 9994
2 53502 97.6032 229.4964 0002784 109.2563 250.8972 15.18415064201862
Epoch: Apr 17, 2026 • Age: 13 hours

現在のステータス

高度 517.8 km
速度 7.61 km/s
衛星直下点 55.08°N, 41.29°W
打ち上げ日 Aug 12, 2022
運用期間 3.6 years
タイプ internet

技術仕様

分類 Payload
質量 300.00 kg
乾燥質量 275.00 kg
総質量 300.00 kg
長さ 0.20 m
直径 2.80 m
スパン 9.00 m
形状 Box + pan
製造者 SPXS
バスタイプ Starlink
フェーズステータス In Orbit
所有者/国 SPXS/US

Most Searched